Regional Weather Roundup
Issued by NWS

Home | Current Version | Previous Version | Text Only | Print | Product List | Glossary On
Versions: 1 2 3 4 5 6 7 8 9 10 11 12 13 14 15 16 17 18 19 20 21 22 23 24 25 26 27 28 29 30 31 32 33 34 35 36 37 38 39 40 41 42 43 44 45 46 47 48 49 50
790
ASUS44 KLUB 050001
RWRTX
WEST TEXAS WEATHER ROUNDUP
NATIONAL WEATHER SERVICE LUBBOCK TX
600 PM CST SUN DEC 04 2016

NOTE: "FAIR" INDICATES FEW OR NO CLOUDS BELOW 12,000 FEET WITH NO
SIGNIFICANT WEATHER AND/OR OBSTRUCTIONS TO VISIBILITY.

TXZ004-006>008-010-012-014-016-OKZ002-050100-
TEXAS PANHANDLE/OKLAHOMA PANHANDLE

CITY           SKY/WX    TMP DP  RH WIND       PRES   REMARKS
AMARILLO       CLEAR     43  22  43 S6        30.03F
BORGER         CLEAR     47  21  35 S5        30.02F
CANADIAN       CLEAR     43  27  54 S7        30.02S
DALHART        CLEAR     37  20  50 S9        30.01S WCI  30
DUMAS          CLEAR     36  23  59 S9        30.01S WCI  29
GUYMON         CLEAR     42  23  46 S8        29.98F
HEREFORD       CLEAR     46  24  42 SE6       30.04S
PAMPA          CLEAR     44  23  42 S6        30.03S
PERRYTON       CLEAR     42  32  68 SW7       30.00S
$$

TXZ026-029-035-045-048-050100-
SOUTHERN PANHANDLE/SOUTH PLAINS/ROLLING PLAINS

CITY           SKY/WX    TMP DP  RH WIND       PRES   REMARKS
CHILDRESS      CLEAR     48  34  58 CALM      30.04F
SEMINOLE       CLEAR     45  35  70 CALM      30.06S
LUBBOCK        MOCLDY    44  28  53 E6        30.04S
PLAINVIEW      CLEAR     44  28  53 SE6       30.02F
SNYDER         CLEAR     47  38  73 CALM      30.04S
$$

TXZ052-054-060>062-072-078-127-140-154-169-050100-
PERMIAN BASIN/CONCHO VALLEY/BIG COUNTRY/EDWARDS PLATEAU

CITY           SKY/WX    TMP DP  RH WIND       PRES   REMARKS
ABILENE        CLOUDY    46  41  82 N7        30.03F
BIG SPRING     PTCLDY    44  40  88 SE5       30.08R
JUNCTION       LGT RAIN  47  44  90 N6        30.01R
MIDLAND        PTCLDY    46  38  73 SE5       30.06R
ODESSA         CLOUDY    45  37  73 W3        30.06R
SAN ANGELO     CLOUDY    48  42  80 E5        30.06R
SONORA         LGT RAIN  45  43  93 NE8       30.07R
SWEETWATER     CLEAR     45  41  86 N5        30.06S
WINK           CLOUDY    44  40  85 NW3       30.06R
$$

TXZ055-058-074-075-080-082-050100-
FAR WEST/SOUTHWEST MOUNTAINS/TRANS PECOS

CITY           SKY/WX    TMP DP  RH WIND       PRES   REMARKS
ALPINE         CLOUDY    37  37  99 NE5       30.12R WCI  34
DRYDEN           N/A     46  43  89 N7        30.04S
EL PASO        PTCLDY    55  29  36 N6        30.01S
FORT STOCKTON  LGT RAIN  42  42 100 W5        30.08R
GUADALUPE PASS FOG       35  35 100 NE23      30.04R VSB<1/4 WCI  23
MARFA          LGT RAIN  38  35  89 E13       30.07R WCI  30
PECOS          CLOUDY    44  42  93 NW3       30.09S
PRESIDIO       DRIZZLE   47  42  82 N8        30.02S
$$

TXZ014-016-019-021>030-083-050100
TEXAS TECH WEST TEXAS MESONET/TEXAS PANHANDLE/NORTHERN SOUTH PLAINS

CITY           SKY/WX    TMP DP  RH WIND       PRES   REMARKS
ABERNATHY 5ENE   N/A     45  30  57 E6        30.06S
AMARILLO 9NNE    N/A     40  24  51 S5        30.03F
AMARILLO 7SSE    N/A     43  20  40 S2        30.05S
AMHERST 1NE      N/A     45  28  51 E2        30.05F
BOOTLEG 11WNW    N/A     37  22  52 S10       30.05F WCI  30
CANADIAN 6E      N/A     48  22  36 S2        30.01S
CAPROCK CYN SP   N/A     41  33  72 W2        30.05S
CHILDRESS 2NNE   N/A     51  28  40 E3        30.04F
CLARENDON 2WSW   N/A     43  24  46 CALM      30.04F
CLAUDE 12SW      N/A     46  19  34 E2        30.04S
DIMMITT 2NE      N/A     40  28  63 S7        30.05S WCI  35
FLOYDADA 2NNE    N/A     42  30  63 SE6       30.04F
FRIONA 2NE       N/A     40  23  51 S6        30.06S
GOODLETT 3W      N/A     47  37  66 E6        30.04S
HART 3N          N/A     45  23  41 SE3       30.05F
HEREFORD 2NW     N/A     44  22  40 S5        30.06S
MCLEAN 1E        N/A     47  21  36 SE1       30.02F
MEMPHIS 1NE      N/A     48  30  49 NE2       30.05S
MULESHOE 2SSW    N/A     44  27  52 CALM      30.06F
OLTON 6S         N/A     45  27  50 E1        30.05F
PALO DURO SP     N/A     44  19  36 SE1       30.05S
PAMPA 2E         N/A     42  24  48 S3        30.04S
PLAINVIEW 1S     N/A     46  29  52 SE3       30.05F
SILVERTON 7ESE   N/A     44  27  50 SE2       30.03S
TULIA 2ENE       N/A     44  32  63 SE2       30.05F
TURKEY 2WSW      N/A     49  32  50 SE3       30.05S
UMBARGER 3NNE    N/A     39  24  56 S3        30.04F
$$

TXZ033>036-039>041-045>048-050100
TEXAS TECH WEST TEXAS MESONET/SOUTH PLAINS

CITY           SKY/WX    TMP DP  RH WIND       PRES   REMARKS
AIKEN 3WSW       N/A     46  30  54 NE2       30.05F
ANDREWS 2NE      N/A     44  35  71 N3        30.06F
ANTON 6SSW       N/A     46  32  57 NE3       30.06S
BROWNFIELD 2S    N/A     45  35  67 E5        30.07S
DENVR CTY 7WNW   N/A     43  31  62 NE6       30.06F
GAIL 2ESE        N/A     46  36  67 NE5       30.05R
LAMESA 2SE       N/A     46  37  72 N6        30.05F
LEVELLAND 4S     N/A     44  32  63 E5        30.07R
LUBBOCK 3WNW     N/A     46  26  46 E3        30.06S
MORTON 1ENE      N/A     46  27  47 E1        30.06S
ODONNELL 1N      N/A     46  37  73 NE2       30.05F
PLAINS 3N        N/A     43  31  62 SE7       30.07R
RALLS 1SE        N/A     44  33  65 NE5       30.07R
REESE CENTER     N/A     44  30  57 E5        30.06S
SEAGRAVES 1SW    N/A     46  36  67 E3        30.07R
SEMINOLE 2NNE    N/A     45  35  70 E5        30.06S
SLATON 2NE       N/A     46  32  58 E5        30.06S
SNYDER 3E        N/A     45  40  82 NE5       30.04R
SUNDOWN 8SW      N/A     45  29  54 E3        30.07R
TAHOKA 3NNE      N/A     45  31  57 E3        30.06R
WOLFFORTH 6SSW   N/A     45  32  60 E6        30.06R
$$

TXZ031-032-036>038-042>044-050100-
TEXAS TECH WEST TEXAS MESONET/ROLLING PLAINS

CITY           SKY/WX    TMP DP  RH WIND       PRES   REMARKS
ASPERMONT 3NE    N/A     46  39  78 E5        30.04F
FLUVANNA 3WNW    N/A     45  35  69 N5        30.05R
GRAHAM 5SSW      N/A     46  34  61 NE8       30.05S
GUTHRIE 10WSW    N/A     47  34  61 N7        30.04F
HASKELL 1NW      N/A     46  40  81 E3        30.05F
JAYTON 1SSE      N/A     49  37  64 NE5       30.04S
KNOX CITY 3NW    N/A     48  41  75 NE3       30.06S
LK A HENRY 1NW   N/A     47  34  61 NE5       30.05F
NORTHFIELD 1S    N/A     50  32  51 SE5       30.05S
ODELL 4ENE       N/A     48  38  68 NE3       30.05F
PADUCAH 10SW     N/A     48  34  59 E3        30.05S
POST 1NE         N/A     47  33  59 NE3       30.05S
RRING SPRGS 3N   N/A     46  31  56 N5        30.05F
SEYMOUR 3NW      N/A     46  41  81 NE3       30.06R
SPUR 1W          N/A     47  34  61 NE7       30.05S
WEINERT 2NNE     N/A     45  40  83 E5        30.04F
WHITE RVR 6NE    N/A     47  30  50 E3        30.06R
$$

TXZ052-054-060>062-072-078-127-140-154-169-050100-
TEXAS TECH WEST TEXAS MESONET/PERMIAN BASIN/
CONCHO VALLEY/BIG COUNTRY/EDWARDS PLATEAU

CITY           SKY/WX    TMP DP  RH WIND       PRES   REMARKS
COYANOSA 2N      N/A     45  44  99 NW6       30.09S
JUNCTION 1SSW    N/A     47  44  91 N7        30.03F
MERTZON 3NNE     N/A     46  41  83 N7        30.07R
SAN ANGELO 7NW   N/A     47  40  77 N3        30.06R
STRLNG CT 4WSW   N/A     45  40  82 NW3       30.06F
ST LAWRNCE 5SW   N/A     44  39  85 N9        30.05S
SWEETWATR 11SW   N/A     42  39  91 N7        30.05S
WALL 1E          N/A     46  41  82 NE3       30.08R
$$

TXZ055-058-074-075-080-082-050100-
TEXAS TECH WEST TEXAS MESONET/FAR WEST/SOUTHWEST MOUNTAINS/TRANS PECOS

CITY           SKY/WX    TMP DP  RH WIND       PRES   REMARKS
PRSMN GAP BBNP   N/A     44  43  96 NE8       30.05R
GUADLPE MTN NP   N/A     35  34  97 N6        30.07R WCI  30
$$




USA.gov is the U.S. government's official web portal to all federal, state and local government web resources and services.